| time (UTC) | temp F | wind direction | speed MPH | gust MPH | rain 1hr in | rain 24hr in | rain mn in | humidity % | barometer mb |
| 20260504223104 | 72 | 263 | 5.0 | 12.0 | 0.00 | 0.00 | 0.00 | 37 | 1008.6 |
| 20260504222103 | 72 | 261 | 5.0 | 12.0 | 0.00 | 0.00 | 0.00 | 38 | 1008.6 |
| 20260504221604 | 72 | 285 | 6.0 | 13.0 | 0.00 | 0.00 | 0.00 | 37 | 1008.7 |
| 20260504221104 | 72 | 302 | 5.0 | 14.0 | 0.00 | 0.00 | 0.00 | 37 | 1008.7 |
| 20260504220104 | 73 | 274 | 4.0 | 12.0 | 0.00 | 0.00 | 0.00 | 37 | 1008.8 |
| 20260504215603 | 73 | 264 | 3.0 | 16.0 | 0.00 | 0.00 | 0.00 | 37 | 1008.8 |
| 20260504215105 | 73 | 292 | 3.0 | 15.0 | 0.00 | 0.00 | 0.00 | 36 | 1008.8 |
| 20260504214603 | 73 | 274 | 2.0 | 17.0 | 0.00 | 0.00 | 0.00 | 37 | 1008.9 |
| 20260504213603 | 73 | 290 | 7.0 | 20.0 | 0.00 | 0.00 | 0.00 | 36 | 1009.1 |
| 20260504213104 | 73 | 277 | 5.0 | 9.0 | 0.00 | 0.00 | 0.00 | 37 | 1009.1 |
| 20260504212604 | 73 | 268 | 5.0 | 12.0 | 0.00 | 0.00 | 0.00 | 35 | 1009.2 |
| 20260504212103 | 74 | 242 | 7.0 | 15.0 | 0.00 | 0.00 | 0.00 | 36 | 1009.1 |
| 20260504211604 | 74 | 276 | 6.0 | 12.0 | 0.00 | 0.00 | 0.00 | 36 | 1009.1 |
| 20260504210603 | 73 | 288 | 9.0 | 17.0 | 0.00 | 0.00 | 0.00 | 35 | 1009.2 |
| 20260504205604 | 74 | 268 | 6.0 | 18.0 | 0.00 | 0.00 | 0.00 | 36 | 1009.3 |
| 20260504205104 | 74 | 286 | 5.0 | 15.0 | 0.00 | 0.00 | 0.00 | 36 | 1009.3 |
| 20260504204604 | 74 | 235 | 3.0 | 12.0 | 0.00 | 0.00 | 0.00 | 37 | 1009.2 |
| 20260504204103 | 74 | 304 | 10.0 | 18.0 | 0.00 | 0.00 | 0.00 | 34 | 1009.3 |
| 20260504203605 | 74 | 283 | 6.0 | 12.0 | 0.00 | 0.00 | 0.00 | 37 | 1009.2 |
| 20260504202604 | 74 | 298 | 7.0 | 14.0 | 0.00 | 0.00 | 0.00 | 34 | 1009.3 |
| 20260504202104 | 74 | 299 | 10.0 | 16.0 | 0.00 | 0.00 | 0.00 | 33 | 1009.3 |
| 20260504201104 | 74 | 269 | 6.0 | 12.0 | 0.00 | 0.00 | 0.00 | 35 | 1009.3 |
| 20260504200604 | 73 | 299 | 7.0 | 17.0 | 0.00 | 0.00 | 0.00 | 35 | 1009.4 |
| 20260504200103 | 74 | 277 | 9.0 | 15.0 | 0.00 | 0.00 | 0.00 | 35 | 1009.5 |
| 20260504195603 | 74 | 303 | 4.0 | 15.0 | 0.00 | 0.00 | 0.00 | 34 | 1009.6 |
| 20260504195103 | 74 | 272 | 4.0 | 15.0 | 0.00 | 0.00 | 0.00 | 37 | 1009.7 |
| 20260504194604 | 74 | 258 | 7.0 | 14.0 | 0.00 | 0.00 | 0.00 | 36 | 1009.8 |
| 20260504194105 | 73 | 293 | 5.0 | 16.0 | 0.00 | 0.00 | 0.00 | 35 | 1009.8 |
| 20260504193604 | 74 | 281 | 9.0 | 16.0 | 0.00 | 0.00 | 0.00 | 35 | 1010.0 |
| 20260504193104 | 73 | 293 | 8.0 | 13.0 | 0.00 | 0.00 | 0.00 | 34 | 1009.9 |
| 20260504191605 | 73 | 282 | 8.0 | 14.0 | 0.00 | 0.00 | 0.00 | 34 | 1009.9 |
| 20260504191105 | 73 | 276 | 4.0 | 13.0 | 0.00 | 0.00 | 0.00 | 36 | 1009.9 |
| 20260504190604 | 73 | 289 | 6.0 | 16.0 | 0.00 | 0.00 | 0.00 | 36 | 1010.1 |
| 20260504185605 | 73 | 293 | 7.0 | 20.0 | 0.00 | 0.00 | 0.00 | 35 | 1010.2 |
| 20260504185104 | 73 | 307 | 6.0 | 22.0 | 0.00 | 0.00 | 0.00 | 35 | 1010.1 |
| 20260504184603 | 73 | 267 | 9.0 | 15.0 | 0.00 | 0.00 | 0.00 | 36 | 1010.2 |
| 20260504184104 | 72 | 245 | 6.0 | 17.0 | 0.00 | 0.00 | 0.00 | 37 | 1010.2 |
| 20260504182604 | 72 | 264 | 8.0 | 14.0 | 0.00 | 0.00 | 0.00 | 37 | 1010.4 |
| 20260504181604 | 72 | 315 | 7.0 | 14.0 | 0.00 | 0.00 | 0.00 | 37 | 1010.5 |
| 20260504181103 | 71 | 269 | 6.0 | 16.0 | 0.00 | 0.00 | 0.00 | 38 | 1010.7 |
| 20260504180103 | 70 | 271 | 6.0 | 12.0 | 0.00 | 0.00 | 0.00 | 40 | 1010.8 |
| 20260504175605 | 71 | 271 | 6.0 | 17.0 | 0.00 | 0.00 | 0.00 | 38 | 1010.9 |
| 20260504175103 | 71 | 280 | 9.0 | 22.0 | 0.00 | 0.00 | 0.00 | 37 | 1010.9 |
| 20260504174605 | 71 | 302 | 6.0 | 14.0 | 0.00 | 0.00 | 0.00 | 36 | 1011.0 |
| 20260504174104 | 71 | 312 | 7.0 | 16.0 | 0.00 | 0.00 | 0.00 | 39 | 1011.1 |
| 20260504173604 | 71 | 295 | 7.0 | 15.0 | 0.00 | 0.00 | 0.00 | 37 | 1011.2 |
| 20260504173104 | 70 | 306 | 6.0 | 12.0 | 0.00 | 0.00 | 0.00 | 37 | 1011.3 |
| 20260504172604 | 70 | 291 | 8.0 | 16.0 | 0.00 | 0.00 | 0.00 | 37 | 1011.3 |
| 20260504172103 | 70 | 285 | 5.0 | 13.0 | 0.00 | 0.00 | 0.00 | 40 | 1011.3 |
| 20260504171604 | 69 | 263 | 8.0 | 18.0 | 0.00 | 0.00 | 0.00 | 39 | 1011.4 |
| 20260504171104 | 69 | 251 | 8.0 | 18.0 | 0.00 | 0.00 | 0.00 | 39 | 1011.4 |
| 20260504170604 | 69 | 242 | 7.0 | 18.0 | 0.00 | 0.00 | 0.00 | 40 | 1011.4 |
| 20260504160104 | 68 | 274 | 5.0 | 15.0 | 0.00 | 0.00 | 0.00 | 39 | 1012.0 |
| 20260504151103 | 67 | 317 | 6.0 | 15.0 | 0.00 | 0.00 | 0.00 | 39 | 1012.6 |
| 20260504150605 | 66 | 330 | 6.0 | 14.0 | 0.00 | 0.00 | 0.00 | 41 | 1012.7 |
| 20260504150105 | 66 | 280 | 9.0 | 17.0 | 0.00 | 0.00 | 0.00 | 39 | 1012.8 |
| 20260504141105 | 64 | 299 | 8.0 | 20.0 | 0.00 | 0.00 | 0.00 | 39 | 1013.5 |
| 20260504140604 | 63 | 302 | 7.0 | 20.0 | 0.00 | 0.00 | 0.00 | 41 | 1013.5 |
| 20260504140107 | 63 | 299 | 8.0 | 17.0 | 0.00 | 0.00 | 0.00 | 40 | 1013.4 |
| 20260504130605 | 61 | 285 | 10.0 | 20.0 | 0.00 | 0.00 | 0.00 | 42 | 1013.7 |
| 20260504130105 | 60 | 316 | 5.0 | 17.0 | 0.00 | 0.00 | 0.00 | 44 | 1013.9 |
| 20260504120105 | 56 | 283 | 3.0 | 12.0 | 0.00 | 0.00 | 0.00 | 51 | 1014.1 |
| 20260504110605 | 51 | 299 | 4.0 | 9.0 | 0.00 | 0.00 | 0.00 | 58 | 1014.1 |
| 20260504110106 | 50 | 298 | 2.0 | 3.0 | 0.00 | 0.00 | 0.00 | 59 | 1014.2 |
| 20260504100604 | 49 | 306 | 3.0 | 8.0 | 0.00 | 0.00 | 0.00 | 58 | 1014.0 |
| 20260504100105 | 49 | 294 | 3.0 | 8.0 | 0.00 | 0.00 | 0.00 | 58 | 1013.9 |
| 20260504090105 | 49 | 294 | 5.0 | 10.0 | 0.00 | 0.00 | 0.00 | 59 | 1013.9 |
| 20260504081605 | 45 | 305 | 0.0 | 0.0 | 0.00 | 0.00 | 0.00 | 70 | 1013.7 |
| 20260504080605 | 42 | 283 | 0.0 | 0.0 | 0.00 | 0.00 | 0.00 | 77 | 1013.8 |
| 20260504080105 | 41 | 293 | 0.0 | 0.0 | 0.00 | 0.00 | 0.00 | 78 | 1013.8 |
| 20260504070106 | 44 | 307 | 0.0 | 0.0 | 0.00 | 0.00 | 0.00 | 70 | 1013.8 |
| 20260504060105 | 42 | 284 | 0.0 | 0.0 | 0.00 | 0.00 | 0.00 | 78 | 1013.5 |
| 20260504050604 | 42 | 337 | 0.0 | 0.0 | 0.00 | 0.00 | 0.00 | 76 | 1013.5 |
| 20260504045605 | 42 | 337 | 0.0 | 0.0 | 0.00 | 0.00 | 0.00 | 75 | 1013.5 |
| 20260504045105 | 42 | 337 | 0.0 | 0.0 | 0.00 | 0.00 | 0.00 | 74 | 1013.5 |
| 20260504044605 | 42 | 337 | 0.0 | 0.0 | 0.00 | 0.00 | 0.00 | 73 | 1013.5 |
| 20260504044105 | 43 | 337 | 0.0 | 0.0 | 0.00 | 0.00 | 0.00 | 73 | 1013.4 |
| 20260504043604 | 43 | 337 | 0.0 | 0.0 | 0.00 | 0.00 | 0.00 | 73 | 1013.3 |
| 20260504042604 | 43 | 337 | 0.0 | 0.0 | 0.00 | 0.00 | 0.00 | 73 | 1013.2 |
| 20260504042104 | 43 | 337 | 0.0 | 0.0 | 0.00 | 0.00 | 0.00 | 72 | 1013.2 |
| 20260504041606 | 43 | 337 | 0.0 | 0.0 | 0.00 | 0.00 | 0.00 | 72 | 1013.1 |
| 20260504041106 | 43 | 337 | 0.0 | 0.0 | 0.00 | 0.00 | 0.00 | 72 | 1013.0 |
| 20260504040605 | 43 | 337 | 0.0 | 0.0 | 0.00 | 0.00 | 0.00 | 72 | 1013.1 |
| 20260504040105 | 43 | 337 | 0.0 | 0.0 | 0.00 | 0.00 | 0.00 | 72 | 1013.0 |
| 20260504035605 | 43 | 337 | 0.0 | 0.0 | 0.00 | 0.00 | 0.00 | 72 | 1013.0 |
| 20260504035105 | 43 | 337 | 0.0 | 0.0 | 0.00 | 0.00 | 0.00 | 72 | 1013.0 |
| 20260504034605 | 43 | 337 | 0.0 | 0.0 | 0.00 | 0.00 | 0.00 | 72 | 1013.0 |
| 20260504034105 | 44 | 337 | 0.0 | 0.0 | 0.00 | 0.00 | 0.00 | 72 | 1012.9 |
| 20260504033106 | 44 | 337 | 0.0 | 0.0 | 0.00 | 0.00 | 0.00 | 72 | 1012.9 |
| 20260504032605 | 44 | 337 | 0.0 | 0.0 | 0.00 | 0.00 | 0.00 | 71 | 1013.0 |
| 20260504031605 | 44 | 337 | 0.0 | 0.0 | 0.00 | 0.00 | 0.00 | 71 | 1013.1 |
| 20260504025604 | 44 | 337 | 0.0 | 0.0 | 0.00 | 0.00 | 0.00 | 70 | 1013.0 |
| 20260504025105 | 44 | 337 | 0.0 | 0.0 | 0.00 | 0.00 | 0.00 | 69 | 1013.0 |
| 20260504024606 | 45 | 337 | 0.0 | 0.0 | 0.00 | 0.00 | 0.00 | 69 | 1013.0 |
| 20260504024106 | 45 | 337 | 0.0 | 0.0 | 0.00 | 0.00 | 0.00 | 68 | 1013.1 |
| 20260504023605 | 45 | 337 | 0.0 | 0.0 | 0.00 | 0.00 | 0.00 | 68 | 1013.1 |
| 20260504023105 | 45 | 337 | 0.0 | 0.0 | 0.00 | 0.00 | 0.00 | 67 | 1013.1 |
| 20260504022605 | 46 | 337 | 0.0 | 0.0 | 0.00 | 0.00 | 0.00 | 67 | 1013.0 |
| 20260504022105 | 46 | 337 | 0.0 | 0.0 | 0.00 | 0.00 | 0.00 | 66 | 1013.1 |
| 20260504021605 | 46 | 337 | 0.0 | 0.0 | 0.00 | 0.00 | 0.00 | 65 | 1013.0 |
| 20260504021104 | 46 | 337 | 0.0 | 0.0 | 0.00 | 0.00 | 0.00 | 64 | 1013.0 |
| 20260504020606 | 47 | 337 | 0.0 | 0.0 | 0.00 | 0.00 | 0.00 | 63 | 1013.0 |
| 20260504020106 | 47 | 337 | 0.0 | 0.0 | 0.00 | 0.00 | 0.00 | 63 | 1013.1 |
| 20260504015605 | 48 | 337 | 0.0 | 0.0 | 0.00 | 0.00 | 0.00 | 62 | 1013.1 |
| 20260504015104 | 48 | 337 | 0.0 | 0.0 | 0.00 | 0.00 | 0.00 | 60 | 1013.0 |
| 20260504014605 | 48 | 337 | 0.0 | 0.0 | 0.00 | 0.00 | 0.00 | 59 | 1013.0 |
| 20260504014104 | 49 | 337 | 0.0 | 0.0 | 0.00 | 0.00 | 0.00 | 57 | 1013.0 |
| 20260504013604 | 49 | 337 | 0.0 | 0.0 | 0.00 | 0.00 | 0.00 | 57 | 1013.0 |
| 20260504013104 | 50 | 337 | 0.0 | 0.0 | 0.00 | 0.00 | 0.00 | 56 | 1012.9 |
| 20260504012106 | 51 | 337 | 0.0 | 0.0 | 0.00 | 0.00 | 0.00 | 54 | 1012.9 |
| 20260504011605 | 51 | 337 | 0.0 | 0.0 | 0.00 | 0.00 | 0.00 | 52 | 1012.8 |
| 20260504011105 | 51 | 337 | 0.0 | 0.0 | 0.00 | 0.00 | 0.00 | 51 | 1012.8 |
| 20260504010105 | 53 | 337 | 0.0 | 0.0 | 0.00 | 0.00 | 0.00 | 48 | 1012.7 |
| 20260504005105 | 54 | 337 | 0.0 | 0.0 | 0.00 | 0.00 | 0.00 | 46 | 1012.6 |
| 20260504004604 | 54 | 337 | 1.0 | 3.0 | 0.00 | 0.00 | 0.00 | 44 | 1012.6 |
| 20260504004105 | 55 | 355 | 1.0 | 2.0 | 0.00 | 0.00 | 0.00 | 44 | 1012.5 |
| 20260504003606 | 55 | 355 | 1.0 | 2.0 | 0.00 | 0.00 | 0.00 | 42 | 1012.5 |
| 20260504003105 | 55 | 339 | 1.0 | 3.0 | 0.00 | 0.00 | 0.00 | 42 | 1012.4 |
| 20260504002606 | 55 | 308 | 2.0 | 7.0 | 0.00 | 0.00 | 0.00 | 42 | 1012.3 |
| 20260504002105 | 55 | 354 | 3.0 | 5.0 | 0.00 | 0.00 | 0.00 | 41 | 1012.2 |
| 20260504001605 | 56 | 309 | 1.0 | 3.0 | 0.00 | 0.00 | 0.00 | 42 | 1012.1 |
| 20260504001105 | 56 | 349 | 0.0 | 2.0 | 0.00 | 0.00 | 0.00 | 40 | 1012.1 |
| 20260504000605 | 56 | 350 | 2.0 | 6.0 | 0.00 | 0.00 | 0.00 | 39 | 1012.0 |
| 20260504000105 | 57 | 356 | 1.0 | 3.0 | 0.00 | 0.00 | 0.00 | 39 | 1011.9 |
| 20260503235605 | 57 | 331 | 3.0 | 5.0 | 0.00 | 0.00 | 0.00 | 38 | 1011.9 |
| 20260503234104 | 57 | 309 | 2.0 | 6.0 | 0.00 | 0.00 | 0.00 | 38 | 1011.6 |
| 20260503233605 | 57 | 355 | 1.0 | 2.0 | 0.00 | 0.00 | 0.00 | 38 | 1011.4 |
| 20260503233105 | 57 | 354 | 2.0 | 3.0 | 0.00 | 0.00 | 0.00 | 38 | 1011.5 |
| 20260503232605 | 57 | 350 | 2.0 | 3.0 | 0.00 | 0.00 | 0.00 | 38 | 1011.4 |
| 20260503231604 | 58 | 3 | 2.0 | 7.0 | 0.00 | 0.00 | 0.00 | 37 | 1011.3 |
| 20260503231105 | 58 | 351 | 1.0 | 7.0 | 0.00 | 0.00 | 0.00 | 39 | 1011.2 |
| 20260503230605 | 58 | 348 | 2.0 | 6.0 | 0.00 | 0.00 | 0.00 | 37 | 1011.2 |
| 20260503230104 | 58 | 323 | 1.0 | 6.0 | 0.00 | 0.00 | 0.00 | 37 | 1011.2 |
| 20260503225604 | 58 | 45 | 3.0 | 7.0 | 0.00 | 0.00 | 0.00 | 35 | 1011.1 |
| 20260503225104 | 58 | 20 | 2.0 | 3.0 | 0.00 | 0.00 | 0.00 | 35 | 1011.1 |
| 20260503224106 | 58 | 8 | 5.0 | 10.0 | 0.00 | 0.00 | 0.00 | 35 | 1011.1 |